Simultaneous Nadir Overpasses (SNOs) Predictions

Prediction of SNOs between NOAA-19 and TERRA Satellite Orbit:

Table of predicted SNOs for the next 14.0 days since TLE Epoch: 2/23/2019
Index Date (NOAA-19) Time (NOAA-19) Lat,Lon (NOAA-19) SZA (NOAA-19 ) Date (TERRA) Time (TERRA) Lat,Lon (TERRA) SZA (TERRA ) Distance(km) Time Diff (sec)
1 02/24/2019 02:47:38 -78.05, -21.48 91.89 02/24/2019 02:47:35 -78.05, -21.62 91.90 3.12 3
2 02/26/2019 08:21:02 78.06, 75.19 87.30 02/26/2019 08:21:17 78.09, 75.13 87.33 3.56 15
3 02/26/2019 09:11:58 -77.72,-115.62 92.93 02/26/2019 09:10:52 -77.75,-118.77 93.11 74.55 66
4 02/28/2019 13:54:36 -78.10, 171.66 93.51 02/28/2019 13:55:01 -78.10, 171.75 93.50 1.88 25
5 02/28/2019 14:45:31 78.07, -20.85 86.46 02/28/2019 14:44:28 78.05, -20.87 86.43 2.03 63
6 03/02/2019 19:28:00 78.10, -91.60 85.66 03/02/2019 19:28:43 78.12, -91.59 85.69 2.56 43
7 03/02/2019 20:19:04 -78.08, 75.79 94.37 03/02/2019 20:18:12 -78.05, 75.72 94.41 2.92 52
8 03/05/2019 01:01:33 -78.12, 4.97 95.17 03/05/2019 01:02:27 -78.13, 4.98 95.16 0.36 54
9 03/05/2019 01:52:29 78.10, 172.36 84.81 03/05/2019 01:51:54 78.06, 172.34 84.76 4.24 35
10 03/07/2019 06:34:58 78.14, 101.60 83.99 03/07/2019 06:36:09 78.13, 101.57 84.00 1.46 71




NCC Satellite Simultaneous Nadir Overpasses (SNOs) Prediction Service
